COSMOS 2242

导读

COSMOS 2242是由独联体(CIS)于1993年4月16日发射的卫星,隶属于俄罗斯“宇宙”(Cosmos)系列航天器。该系列多承担军事侦察、技术试验或空间环境监测等任务,服役期间为航天技术验证与空间态势感知提供数据支撑。作为冷战后独联体早期航天活动的产物,它延续了苏联航天遗产,在低轨空间完成既定使命,是苏/俄军事航天发展历程中的一颗典型卫星。

基本信息
目录编号:
22626
目录名称:
COSMOS 2242
国际标识:
1993-024A
轨道中心:
EARTH
卫星名称:
COSMOS 2242
卫星全名:
--
卫星状态:
在轨 (已飞行12113 天)
发射日期:
1993-04-16 UTC
国别 :
俄罗斯(独联体) (CIS)
星等 :
--
轨道信息
数据来源 国际轨道数据 AOE轨道数据
星历时间 2026-06-15T07:23:47+0800
6小时前
查看轨道信息
2026-06-09T07:00:00+0800
6天前
查看轨道信息
半长轴 6954.627km 6954.694km
偏心率 0.0015558 0.0016542
轨道倾角 82.518° 82.511°
近地点辐角 344.082° 1.534°
升交点赤经 173.660° 179.417°
平近点角 15.991° 357.019°
近地点 565.669km 565.052km
远地点 587.311km 588.062km
周期 96.199分钟 96.200分钟
每日圈数 14.968975 14.968757
详细信息
使用方式:
暂无
2D轨道图
3D轨道图
轨道高度分析图
轨道倾角分析图
轨道综合分析图
查看轨道综合分析图